Wind_Speed
15 15 16 16 15 15 14 14 14 14 13 13 13 12 12 11 11 10 9 9 8 8 7 7 7 6 6 6 6 7 7 8 8 8 7 7 6 5 5 4 4 4 4
17 17 17 17 17 16 16 15 15 15 15 15 14 14 13 13 12 12 11 11 10 10 9 9 9 8 8 8 8 8 8 9 9 9 9 9 8 8 7 7 6 6 6
19 19 19 18 18 18 18 17 17 17 17 17 16 16 15 15 14 13 13 12 12 11 11 11 11 10 10 9 9 9 9 10 10 10 10 10 10 10 9 9 9 9 9
21 21 20 20 20 20 20 19 19 18 18 18 18 18 17 17 16 15 15 14 14 13 13 13 12 12 12 11 11 11 10 10 11 11 11 11 12 12 11 11 11 11 11
24 23 23 22 22 21 21 21 20 20 20 20 19 19 19 19 18 17 17 16 15 15 15 14 14 13 13 13 13 13 12 12 12 12 12 13 13 13 13 13 13 13 13
27 27 26 25 24 24 23 22 22 22 21 21 21 20 20 20 19 19 18 18 18 17 17 16 16 15 15 15 14 14 14 14 14 14 14 14 14 15 15 15 15 15 15
30 29 29 28 27 26 25 24 23 23 23 23 22 22 21 21 20 20 20 19 19 19 19 19 18 17 17 16 16 15 16 16 16 16 16 16 16 16 16 16 17 17 17
31 32 32 31 30 29 28 27 26 25 25 24 24 23 22 22 22 21 21 21 21 20 20 20 20 20 19 18 18 17 17 17 18 17 17 18 18 18 18 18 18 19 19
33 33 33 33 33 32 31 30 29 28 27 27 26 26 25 24 24 23 23 22 22 22 22 22 22 22 21 21 20 20 19 19 20 19 19 20 20 20 20 20 21 21 21
34 34 34 35 35 35 34 33 32 31 30 30 29 29 28 27 26 26 25 24 24 23 23 23 24 23 23 23 22 22 21 21 21 21 21 21 22 22 22 22 22 23 23
35 34 35 35 36 36 36 36 35 34 33 33 32 31 31 30 29 28 27 27 26 25 25 25 25 25 25 24 24 24 23 23 23 23 23 23 23 23 24 24 24 24 25
35 35 35 36 36 37 37 37 37 37 36 35 35 34 34 33 32 31 30 30 29 29 28 27 27 27 27 26 26 26 26 25 25 25 25 25 25 25 25 26 26 26 27
36 36 36 37 37 37 37 38 38 38 38 38 37 37 36 36 35 33 33 33 32 32 31 30 29 29 29 28 28 27 27 27 27 27 27 27 27 27 27 28 28 29 29
38 38 38 38 38 39 39 39 39 39 40 40 40 39 38 38 37 37 36 36 35 34 34 33 33 32 31 31 30 29 29 29 29 29 29 29 29 29 29 30 30 30 30
39 39 39 39 40 41 41 41 41 40 41 41 41 40 40 39 39 39 39 38 38 37 37 36 36 35 34 33 33 32 31 31 31 31 31 31 31 32 31 31 32 32 32
40 41 41 41 41 42 42 43 43 43 42 42 42 42 42 41 41 41 41 40 39 39 39 38 37 38 37 36 35 35 34 33 33 33 33 33 34 34 33 33 34 33 33
42 42 43 43 43 43 43 44 44 44 44 43 43 43 43 43 43 42 42 42 41 41 40 40 39 39 39 38 37 37 36 36 35 34 35 35 35 35 35 35 35 34 34
43 43 44 45 45 45 45 45 45 45 45 45 45 44 44 44 45 44 44 43 43 43 42 41 41 41 41 40 40 39 38 38 38 37 37 37 37 36 36 36 36 35 35
44 45 45 46 47 47 47 47 47 47 47 47 47 46 46 46 45 45 45 45 45 45 44 43 43 43 43 42 41 41 40 41 40 39 39 38 38 38 38 38 38 37 37
45 46 46 47 47 48 48 48 49 48 48 48 48 48 48 48 47 46 46 46 46 46 45 45 45 45 44 44 43 42 42 43 43 42 42 41 40 39 39 39 39 40 39
44 45 46 47 47 47 48 49 49 49 49 49 49 50 50 49 49 49 48 47 48 47 46 47 47 47 46 45 45 44 44 44 44 44 44 43 42 41 40 40 41 41 41
42 43 44 46 47 47 48 49 50 50 50 51 51 51 51 51 51 51 49 48 49 49 49 48 49 48 46 46 46 46 45 45 46 46 45 45 44 43 42 41 42 42 43
41 42 42 43 45 46 47 49 50 51 51 51 52 52 52 53 53 53 52 51 50 50 51 51 50 49 49 49 48 48 48 46 46 46 46 46 45 45 45 45 44 43 42
37 39 40 41 42 43 45 46 47 49 50 51 51 52 52 52 53 54 54 54 53 51 51 50 50 50 50 50 49 49 49 49 49 49 48 48 48 46 45 44 44 44 44
34 36 38 39 39 40 42 43 43 45 47 48 49 49 49 49 49 51 51 51 51 51 51 50 50 50 50 51 50 49 50 50 49 49 49 49 48 47 46 46 45 45 45
30 32 33 35 36 37 38 39 40 42 43 44 46 46 47 46 46 46 47 48 49 50 50 49 49 49 49 50 49 49 50 50 49 49 49 48 47 46 46 46 46 45 45
Wind_Direction
246 247 248 249 251 252 253 253 255 256 256 256 255 257 260 262 262 261 263 264 267 270 273 274 274 277 275 272 267 260 255 253 254 254 254 259 264 268 275 285 296 304 312
247 248 249 250 251 252 254 255 256 255 256 256 256 257 259 261 262 262 262 263 264 266 269 272 272 274 276 273 270 266 261 259 259 260 259 261 264 269 274 279 284 290 296
247 249 250 250 251 252 253 255 256 256 256 256 257 257 258 260 262 262 261 262 263 264 267 270 272 273 275 275 272 268 265 264 263 265 266 266 267 269 273 277 280 283 287
247 248 250 251 252 253 253 254 256 256 256 258 258 258 258 260 261 262 261 261 262 263 265 268 271 272 273 274 272 269 267 267 267 267 268 269 270 271 272 276 279 281 284
247 248 250 251 252 253 254 255 255 256 256 257 259 259 259 260 261 262 262 262 262 263 264 266 268 270 270 271 271 270 269 269 269 269 271 271 272 272 274 275 277 280 282
247 248 249 251 252 253 255 255 256 255 256 256 258 259 259 260 260 260 261 262 262 263 263 265 267 268 269 271 271 271 270 269 269 269 271 272 273 274 275 276 278 279 281
247 248 249 250 251 252 253 255 256 256 256 256 257 258 259 260 260 260 260 262 263 263 263 264 265 267 268 269 269 270 271 271 270 269 270 272 274 275 277 278 279 280 281
248 248 249 250 251 252 253 254 255 256 256 256 257 258 259 260 260 260 260 261 262 262 263 264 264 265 267 268 268 269 271 272 272 271 271 272 274 276 277 278 279 280 281
249 249 250 250 251 252 253 254 254 255 256 256 257 258 258 259 259 259 260 260 261 262 263 263 264 264 265 267 268 268 270 271 272 272 273 273 274 275 276 277 279 280 281
250 250 251 252 252 252 253 254 255 255 256 256 257 258 258 258 259 260 261 261 262 262 262 263 263 263 264 265 267 268 268 270 271 272 273 274 275 275 276 277 278 279 281
250 251 252 252 253 253 253 254 255 255 256 256 257 257 258 259 259 259 261 261 262 261 262 262 263 263 264 265 265 267 268 269 270 272 273 273 275 276 277 278 278 279 281
250 251 251 252 253 253 253 254 254 255 255 256 256 257 258 259 260 260 260 260 261 261 262 262 262 263 263 264 265 266 267 268 269 271 272 273 274 275 277 278 278 279 280
250 251 251 252 252 253 253 253 254 254 255 255 256 257 258 259 259 259 259 259 260 261 262 262 262 263 263 264 266 267 267 268 268 270 271 272 274 275 276 277 278 278 279
251 252 252 252 252 252 252 252 253 254 254 255 255 255 256 257 258 259 259 259 260 261 261 262 262 262 263 264 266 267 267 268 268 269 270 271 273 274 275 276 277 278 279
251 252 253 253 253 252 252 253 252 253 253 254 255 255 255 256 257 258 259 259 259 260 261 261 262 263 263 264 265 266 268 268 269 269 270 272 273 273 274 276 276 277 278
251 252 253 253 253 253 253 253 253 252 252 253 254 254 254 255 256 257 258 258 259 261 261 261 261 262 263 264 264 265 266 267 268 269 270 271 272 273 273 274 276 275 276
252 253 253 254 254 254 254 253 252 252 252 252 253 254 254 254 255 256 257 257 259 259 260 261 262 262 263 263 264 265 266 267 267 268 270 271 272 272 273 274 274 273 274
253 253 254 254 254 254 254 253 253 252 252 252 252 252 254 255 255 255 255 256 258 259 259 260 261 262 262 262 263 264 265 266 268 268 270 271 272 272 272 272 272 273 274
255 255 254 254 254 254 254 253 253 253 252 252 252 252 253 254 254 254 254 256 258 259 259 260 261 261 261 261 263 263 263 265 267 268 270 271 272 272 271 270 271 272 273
256 255 255 255 255 255 255 254 253 253 253 252 252 252 253 252 253 253 254 255 257 258 259 260 261 260 260 261 262 263 263 263 266 267 269 271 272 272 271 270 271 271 273
258 257 257 257 256 256 256 255 253 253 253 252 252 252 252 252 251 253 254 254 256 257 258 259 260 260 260 260 261 262 262 263 265 267 268 270 270 270 270 270 270 272 273
259 259 259 258 257 256 256 255 253 252 253 252 251 252 252 252 252 252 253 254 256 256 257 258 259 259 259 260 261 262 262 265 267 267 267 268 268 268 268 268 270 272 273
260 259 259 258 257 256 255 255 253 253 253 253 252 253 253 253 252 252 252 253 254 256 257 258 258 258 259 260 262 262 263 265 266 266 267 267 268 269 269 269 270 272 272
261 260 259 259 258 256 256 255 254 254 253 253 253 253 253 253 253 252 253 253 253 255 257 257 259 259 260 261 262 263 264 265 265 265 265 266 268 270 269 269 269 269 272
264 262 260 260 259 258 257 255 254 254 253 252 253 253 253 254 254 254 253 253 254 254 256 257 258 258 258 259 260 262 265 265 266 266 265 265 267 267 267 268 269 270 271
266 265 263 261 260 260 257 255 255 256 254 253 253 252 252 252 253 254 254 254 254 254 255 256 256 257 258 259 260 263 264 265 266 267 267 265 264 265 267 268 269 270 270
Height
5866 5867 5868 5869 5870 5871 5872 5873 5874 5875 5876 5877 5877 5878 5879 5879 5880 5880 5880 5880 5881 5881 5881 5880 5880 5880 5880 5880 5880 5880 5879 5879 5879 5879 5879 5879 5878 5878 5878 5877 5877 5876 5875
5863 5864 5865 5866 5868 5869 5870 5871 5872 5873 5874 5875 5876 5876 5877 5877 5878 5878 5879 5879 5879 5879 5879 5879 5879 5879 5879 5879 5879 5879 5878 5878 5878 5878 5878 5878 5878 5877 5877 5876 5876 5875 5874
5860 5861 5862 5864 5865 5866 5867 5868 5869 5870 5871 5872 5873 5874 5875 5875 5876 5876 5877 5877 5877 5878 5878 5878 5878 5878 5878 5878 5878 5877 5877 5877 5877 5877 5877 5877 5876 5876 5876 5875 5875 5874 5873
5856 5858 5859 5860 5862 5863 5864 5865 5866 5868 5869 5870 5871 5872 5872 5873 5874 5874 5875 5875 5875 5876 5876 5876 5876 5876 5876 5876 5876 5876 5876 5876 5876 5875 5875 5875 5875 5874 5874 5873 5873 5872 5872
5852 5854 5855 5857 5858 5859 5861 5862 5863 5864 5866 5867 5868 5869 5870 5870 5871 5871 5872 5872 5873 5873 5874 5874 5874 5874 5874 5874 5874 5874 5874 5874 5874 5874 5873 5873 5873 5872 5872 5871 5871 5870 5870
5847 5849 5851 5852 5854 5855 5857 5858 5860 5861 5862 5863 5864 5865 5866 5867 5868 5868 5869 5869 5870 5870 5871 5871 5871 5872 5872 5872 5872 5872 5872 5872 5871 5871 5871 5871 5870 5870 5870 5869 5869 5868 5867
5842 5844 5846 5848 5849 5851 5852 5854 5855 5857 5858 5859 5861 5862 5863 5864 5864 5865 5866 5866 5867 5867 5868 5868 5868 5869 5869 5869 5869 5869 5869 5869 5869 5869 5868 5868 5868 5867 5867 5866 5866 5865 5864
5836 5838 5840 5842 5844 5846 5848 5849 5851 5852 5854 5855 5856 5858 5859 5859 5860 5861 5862 5862 5863 5864 5864 5865 5865 5865 5866 5866 5866 5866 5866 5866 5866 5866 5865 5865 5865 5864 5864 5863 5863 5862 5861
5830 5832 5834 5836 5838 5840 5842 5844 5846 5848 5849 5850 5852 5853 5854 5855 5856 5857 5858 5858 5859 5859 5860 5860 5861 5861 5862 5862 5862 5863 5863 5862 5862 5862 5862 5861 5861 5861 5860 5860 5859 5858 5857
5824 5826 5828 5830 5832 5834 5836 5838 5840 5842 5844 5845 5847 5848 5849 5850 5851 5852 5853 5854 5855 5855 5856 5856 5857 5857 5857 5858 5858 5858 5858 5858 5858 5858 5858 5858 5857 5857 5856 5856 5855 5854 5853
5817 5819 5822 5824 5825 5827 5829 5831 5833 5835 5838 5839 5841 5842 5844 5845 5846 5847 5848 5849 5850 5850 5851 5851 5852 5852 5853 5853 5853 5854 5854 5854 5854 5854 5853 5853 5853 5852 5852 5851 5851 5850 5849
5810 5812 5815 5817 5818 5820 5822 5824 5826 5829 5831 5832 5834 5836 5837 5839 5840 5842 5843 5844 5844 5845 5846 5846 5847 5847 5848 5848 5848 5849 5849 5849 5849 5849 5848 5848 5848 5847 5847 5846 5846 5845 5844
5803 5805 5807 5809 5811 5813 5815 5817 5819 5821 5823 5825 5827 5829 5830 5832 5834 5835 5836 5837 5838 5839 5840 5840 5841 5842 5842 5843 5843 5843 5843 5843 5843 5843 5843 5843 5842 5842 5841 5841 5840 5839 5838
5795 5797 5799 5801 5803 5805 5807 5809 5811 5813 5815 5817 5819 5821 5823 5824 5826 5828 5829 5830 5831 5833 5834 5834 5835 5835 5836 5837 5837 5837 5837 5837 5837 5837 5837 5837 5836 5836 5835 5835 5834 5833 5832
5787 5789 5791 5793 5795 5797 5798 5801 5803 5805 5806 5808 5810 5812 5814 5816 5818 5820 5821 5823 5824 5825 5826 5827 5828 5829 5829 5830 5830 5831 5831 5831 5831 5831 5830 5830 5830 5829 5829 5828 5828 5827 5826
5779 5780 5782 5784 5786 5787 5789 5791 5793 5796 5798 5799 5801 5803 5805 5807 5810 5811 5813 5815 5816 5817 5818 5820 5821 5821 5822 5823 5823 5824 5824 5824 5824 5824 5824 5823 5823 5822 5822 5821 5821 5820 5819
5770 5771 5773 5775 5776 5778 5779 5781 5784 5786 5788 5790 5792 5794 5796 5798 5800 5802 5804 5806 5808 5809 5810 5811 5812 5813 5814 5815 5816 5816 5816 5816 5817 5817 5816 5816 5815 5815 5814 5814 5813 5812 5812
5760 5762 5763 5765 5766 5768 5769 5771 5773 5776 5778 5780 5782 5784 5786 5788 5791 5793 5795 5797 5798 5800 5801 5803 5804 5805 5806 5807 5807 5808 5808 5808 5809 5809 5809 5808 5808 5807 5807 5806 5805 5805 5804
5750 5751 5753 5754 5756 5757 5759 5761 5763 5765 5768 5770 5772 5774 5776 5778 5781 5783 5785 5787 5789 5790 5792 5793 5795 5796 5797 5797 5798 5799 5800 5800 5800 5800 5800 5800 5800 5799 5798 5798 5797 5797 5796
5739 5740 5741 5743 5744 5746 5748 5750 5752 5754 5757 5759 5761 5764 5766 5768 5770 5772 5775 5777 5779 5780 5782 5784 5785 5786 5787 5788 5789 5790 5790 5791 5791 5792 5792 5791 5791 5790 5789 5789 5788 5788 5787
5728 5729 5730 5731 5733 5734 5736 5738 5740 5743 5745 5748 5750 5753 5755 5757 5759 5762 5764 5766 5768 5770 5772 5773 5774 5776 5777 5778 5779 5780 5781 5782 5782 5782 5782 5782 5781 5781 5780 5780 5779 5779 5778
5717 5718 5719 5720 5721 5722 5724 5726 5728 5730 5733 5736 5738 5741 5743 5745 5748 5750 5753 5755 5757 5759 5760 5762 5764 5765 5766 5767 5769 5770 5771 5772 5772 5772 5772 5772 5771 5771 5770 5770 5769 5769 5768
5707 5707 5708 5708 5709 5710 5711 5713 5715 5718 5720 5723 5726 5728 5731 5733 5735 5738 5741 5743 5746 5747 5749 5751 5752 5753 5755 5757 5757 5759 5760 5762 5762 5762 5761 5761 5760 5760 5760 5760 5759 5758 5758
5697 5697 5697 5697 5697 5698 5699 5701 5703 5705 5708 5711 5713 5716 5718 5720 5723 5726 5728 5731 5734 5735 5738 5739 5741 5742 5744 5745 5746 5747 5748 5749 5750 5751 5751 5750 5749 5749 5749 5749 5749 5748 5748
5689 5688 5688 5687 5688 5688 5689 5690 5692 5694 5696 5698 5701 5703 5706 5708 5710 5713 5716 5719 5721 5723 5725 5727 5729 5731 5732 5734 5735 5736 5736 5737 5737 5738 5740 5740 5738 5738 5738 5738 5738 5738 5737
5681 5680 5679 5678 5679 5679 5679 5681 5682 5684 5685 5687 5689 5692 5695 5697 5700 5702 5705 5707 5709 5711 5713 5715 5717 5719 5721 5722 5723 5724 5725 5725 5726 5726 5726 5727 5727 5727 5727 5726 5726 5726 5726